Content
SEND FEEDBACK

Daily
Averages
Monthly
Summary
Mexico

LEONA VICARIO, QUINTANA ROO


Home > North America > Mexico > Quintana Roo
Elevation: 26 feet     Latitude: 20 59N     Longitude: 087 12W

WEATHER
 
SELECT A DAY
Number of Records: 167,808;   Date Range: 1/1/95 - 12/20/14
 
SHARE

PRINT THIS DATA

[ ← Previous Day ]
WEATHER ALMANAC - APRIL 3, 2013
[ Next Day → ]
[ °C ]   °F
Weather ElementAverageHighLow
Temperature80.5 °F86 °F (11:42 am)77 °F (1:45 am)
Dewpoint73.3 °F75.2 °F (8:41 pm)71.6 °F (2:42 am)
Humidity79.1 %89 % (1:45 am)66 % (9:40 am)
Barometer29.91 in29.95 in (8:44 am)29.85 in (1:46 pm)
Wind Speed16.3 mph26.5 mph (8:44 am)
Wind Gust29.9 mph (11:42 am)
Weather ElementAverage
Visibility7 mi
Wind DirectionSSE (148.3 °)

Weather ElementTotal
Precipitation---
Cooling Degree Days16.5 (Base 65)
Growing Degree Days31.5 (Base 50)
Averaged from 23 records on April 3, 2013
WEATHER CONDITIONS BREAKOUT
WIND DIRECTION BREAKOUT
WEATHER BY HOUR - APRIL 3, 2013
[ °C ]   °F
Local TimeTemperatureDewpointHumidityBarometerVisibilityWind DirectionWind SpeedGust SpeedPrecipitationEventsConditions
1:45 AM77.0 °F73.4 °F89 %29.93 in7.0 miSE (130°)13.8 mphScattered Clouds
2:42 AM77.0 °F71.6 °F83 %29.91 in7.0 miSE (130°)15.0 mphScattered Clouds
3:40 AM77.0 °F71.6 °F83 %29.91 in7.0 miSE (130°)10.4 mphScattered Clouds
4:40 AM77.0 °F73.4 °F89 %29.90 in7.0 miSE (130°)12.7 mphScattered Clouds
5:42 AM77.0 °F71.6 °F83 %29.91 in7.0 miSE (130°)15.0 mphScattered Clouds
6:49 AM78.8 °F73.4 °F83 %29.92 in7.0 miSE (130°)17.3 mphMostly Cloudy
7:41 AM82.4 °F73.4 °F74 %29.93 in7.0 miSE (140°)21.9 mphMostly Cloudy
8:44 AM82.4 °F71.6 °F70 %29.95 in7.0 miSE (140°)26.5 mphMostly Cloudy
9:40 AM84.2 °F71.6 °F66 %29.94 in7.0 miSSE (150°)23.0 mphMostly Cloudy
10:41 AM84.2 °F73.4 °F70 %29.93 in7.0 miSSE (160°)24.2 mphMostly Cloudy
11:42 AM86.0 °F73.4 °F66 %29.92 in7.0 miSSE (150°)18.4 mph29.9 mphMostly Cloudy
12:52 PM84.2 °F73.4 °F70 %29.88 in7.0 miSSE (160°)25.3 mphMostly Cloudy
1:46 PM84.2 °F73.4 °F70 %29.85 in7.0 miSouth (170°)18.4 mph29.9 mphMostly Cloudy
2:45 PM84.2 °F73.4 °F70 %29.86 in7.0 miSouth (180°)19.6 mphMostly Cloudy
3:42 PM82.4 °F73.4 °F74 %29.85 in7.0 miSouth (170°)17.3 mphMostly Cloudy
4:41 PM80.6 °F73.4 °F79 %29.86 in7.0 miSSE (160°)13.8 mphMostly Cloudy
5:48 PM80.6 °F73.4 °F79 %29.89 in7.0 miSSE (150°)13.8 mphMostly Cloudy
6:44 PM78.8 °F73.4 °F83 %29.89 in7.0 miSSE (150°)10.4 mphScattered Clouds
7:41 PM78.8 °F73.4 °F83 %29.91 in7.0 miSE (140°)8.1 mphPartly Cloudy
8:41 PM78.8 °F75.2 °F89 %29.93 in7.0 miSSE (150°)9.2 mphPartly Cloudy
9:48 PM78.8 °F75.2 °F89 %29.94 in7.0 miSSE (160°)10.4 mphPartly Cloudy
10:47 PM78.8 °F75.2 °F89 %29.94 in7.0 miSSE (150°)13.8 mphClear
11:46 PM78.8 °F75.2 °F89 %29.93 in7.0 miSSE (150°)16.1 mphClear
Hourly data recorded from MMUN, located miles away from Leona Vicario, Quintana Roo







STORIES FROM OUR PARTNERS